This is the latest recevied weather packets stored in our database for station/object OE3XAM-13. If no packets are shown the sender has not sent any weather packets the latest 10 day(s).
| Time | Temp. | Humidity | Pressure | Rain* | Wind** | Luminosity | Snow |
|---|---|---|---|---|---|---|---|
| 1788550888 | 20.56° C | 57% | 977 hPa | 0 mm | - | - | - |
| 1788549088 | 21.67° C | 55% | 977 hPa | 0 mm | - | - | - |
| 1788547288 | 21.67° C | 54% | 977 hPa | 0 mm | - | - | - |
| 1788545488 | 22.78° C | 51% | 977 hPa | 0 mm | - | - | - |
| 1788543688 | 24.44° C | 47% | 977 hPa | 0 mm | - | - | - |
| 1788541888 | 26.67° C | 41% | 977 hPa | 0 mm | - | - | - |
| 1788540088 | 29.44° C | 33% | 978 hPa | 0 mm | - | - | - |
| 1788538288 | 32.22° C | 26% | 978 hPa | 0 mm | - | - | - |
| 1788536488 | 33.33° C | 23% | 978 hPa | 0 mm | - | - | - |
| 1788534688 | 33.89° C | 22% | 978 hPa | 0 mm | - | - | - |
| 1788532888 | 34.44° C | 22% | 978 hPa | 0 mm | - | - | - |
| 1788531088 | 33.89° C | 22% | 979 hPa | 0 mm | - | - | - |
| 1788529288 | 33.33° C | 23% | 979 hPa | 0 mm | - | - | - |
| 1788527488 | 32.22° C | 25% | 980 hPa | 0 mm | - | - | - |
| 1788525688 | 32.22° C | 25% | 981 hPa | 0 mm | - | - | - |
| 1788523888 | 31.67° C | 28% | 981 hPa | 0 mm | - | - | - |
| 1788522088 | 30.56° C | 30% | 982 hPa | 0 mm | - | - | - |
| 1788520288 | 30° C | 33% | 982 hPa | 0 mm | - | - | - |
| 1788518488 | 28.89° C | 37% | 983 hPa | 0 mm | - | - | - |
| 1788516688 | 28.33° C | 39% | 984 hPa | 0 mm | - | - | - |
| 1788514888 | 27.22° C | 44% | 984 hPa | 0 mm | - | - | - |
| 1788513088 | 26.67° C | 44% | 984 hPa | 0 mm | - | - | - |
| 1788511288 | 25.56° C | 49% | 984 hPa | 0 mm | - | - | - |
| 1788509488 | 23.89° C | 53% | 985 hPa | 0 mm | - | - | - |
| 1788507688 | 22.22° C | 60% | 985 hPa | 0 mm | - | - | - |
* Rain latest hour (hover to see other rain measurements)
** Current wind speed in m/s (hover to see current wind gust speed)